Regional Weather Roundup
Issued by NWS Portland, ME

Home | Current Version | Previous Version | Text Only | Print | Product List | Glossary On
Versions: 1 2 3 4 5 6 7 8 9 10 11 12 13 14 15 16 17 18 19 20 21 22 23 24 25 26 27 28 29 30 31 32 33 34 35 36 37 38 39 40 41 42 43 44 45 46 47 48 49 50
000
ASUS41 KGYX 220210
RWRGYX
WEATHER ROUNDUP FOR MAINE AND NEW HAMPSHIRE
NATIONAL WEATHER SERVICE GRAY ME
1000 PM EDT SUN SEP 21 2014

MEZ002-005-006-010-012-015-018-020-021-024-026-027-029-220300-
MAINE

CITY           SKY/WX    TMP DP  RH WIND       PRES   REMARKS
PORTLAND       FOG       63  62  97 NE3       29.61F VSB 1/4
SANFORD        CLOUDY    64  61  88 NE3       29.61F VSB 1/2
BAR HARBOR     CLOUDY    63  63 100 CALM      29.63F VSB 1/2
WISCASSET      FOG       64  64 100 E3        29.63F VSB 1/2
ROCKLAND       CLOUDY    63  61  94 N5        29.62F VSB 1/4
FRYEBURG       CLOUDY    67  65  93 CALM      29.62F
LEWISTONAUBURN CLOUDY    64  63  94 CALM      29.62F VSB 1
AUGUSTA        FOG       63  63 100 CALM      29.63F VSB 1/4
WATERVILLE     CLOUDY    64  63  94 CALM      29.58F VSB 1/4
BANGOR         FOG       65  64  97 CALM      29.64F VSB 1/2
GREENVILLE       N/A     63  63 100 VRB3      29.65F
MILLINOCKET    CLOUDY    67  65  93 CALM      29.67F
HOULTON        CLOUDY    66  63  90 S7        29.66F
PRESQUE ISLE   CLOUDY    64  59  82 SE7       29.65F
FRENCHVILLE    CLOUDY    63  60  90 S13       29.64S
CARIBOU        CLOUDY    66  62  87 S12       29.65F
$$

NHZ002-005-008-009-011-012-014-220300-
NEW HAMPSHIRE

CITY           SKY/WX    TMP DP  RH WIND       PRES   REMARKS
PORTSMOUTH     FOG       65  64  97 CALM      29.58F VSB 1/16
ROCHESTER      FOG       66  64  93 CALM      29.60F VSB 1/4
NASHUA         CLOUDY    70  68  94 CALM      29.60F
MANCHESTER     CLOUDY    69  66  90 CALM      29.59S
CONCORD        CLOUDY    69  67  93 CALM      29.60F
LACONIA        CLOUDY    66  63  88 CALM      29.59F
PLYMOUTH       CLOUDY    68  68 100 CALM      29.59F
BERLIN         CLOUDY    65  63  93 CALM      29.61F
WHITEFIELD     CLOUDY    60  57  89 CALM      29.59F
JAFFREY        MOCLDY    63  62  97 CALM      29.62F FOG
LEBANON        MOCLDY    64  61  90 CALM      29.57F
MT WASHINGTON  LGT RAIN  50  50 100 SW25G31     N/A  VSB 0
$$

VTZ005-007-008-220300-
VERMONT

CITY           SKY/WX    TMP DP  RH WIND       PRES   REMARKS
ST JOHNSBURY     N/A     66  63  90 MISG      29.55F
MONTPELIER     LGT RAIN  68  64  87 S7        29.61F
BURLINGTON     LGT RAIN  66  63  90 SE6       29.56R FOG
$$

MAZ007-012-024-CTZ003-RIZ002-NYZ038-NYZ072-220300-
SOUTHERN NEW ENGLAND AND NY

CITY           SKY/WX    TMP DP  RH WIND       PRES   REMARKS
BOSTON         CLOUDY    70  68  93 CALM      29.58F
WORCESTER      MOCLDY    66  66 100 SW3       29.62F FOG
NANTUCKET      CLOUDY    66  65  96 N6        29.55F
PROVIDENCE     FOG       68  68 100 W5        29.59F VSB 3/4
HARTFORD       FOG       69  67  93 SW3       29.59F VSB 3/4
ALBANY         CLOUDY    69  52  54 W15       29.62R
NEW YORK CITY  PTCLDY    72  66  81 SW8       29.62R
$$

ANZ081-ANZ082-ANZ150-NHZ014-MEZ023>029-220300-
COASTAL MARINE OBSERVATIONS

STATION/POSITION TIME  TEMP    WIND        PRES    WAVE
                       AIR SEA DIR/SP/G            HT/PER
                 (UTC) (F)     (DEG/KT/KT) (MB)    (FT/S)
MOUNT DESERT ROC 0200   61                 1003.0F
MATINICUS ROCK   0200          120/ 15/ 15 1002.3F
PORTLAND WX BUOY 0150   60 59   80/  2/  6 1002.2F   2/ 5
WELLS            0100   64 57   50/  1/  2 1001.9F
ISLE OF SHOALS   0200   63     180/  1/  1 1001.5F
JEFFREYS LEDGE   0121      60                N/A     2/ 5
CASHES LEDGE BUO 0150   64 63              1001.9F   3/ 6
$$

.............KEY..............
   WCI - WIND CHILL
   TC  - TEMPERATURE IN CELSIUS
   VSB - VISIBILITY IN MILES
   HX  - HEAT INDEX
   FAIR- INDICATES FEW OR NO CLOUDS BELOW 12,000 FT, WITH NO
         SIGNIFICANT WEATHER AND/OR OBSTRUCTIONS TO VISIBILITY.




USA.gov is the U.S. government's official web portal to all federal, state and local government web resources and services.